Weather History for EGJJ - November, 2012

Change the Weather History Date:

Saturday, November 24, 2012

  Actual Average Record
Temperature  
Mean Temperature 50 °F -  
Max Temperature 55 °F 47 °F 57 °F (2006)
Min Temperature 46 °F 41 °F 37 °F (1996)
Degree Days  
Heating Degree Days 14    
Moisture  
Dew Point 49 °F    
Average Humidity 95    
Maximum Humidity 100    
Minimum Humidity 82    
Precipitation  
Precipitation 0.00 in - - ()
Sea Level Pressure  
Sea Level Pressure 29.69 in    
Wind  
Wind Speed 15 mph ()    
Max Wind Speed 30 mph    
Max Gust Speed 34 mph    
Visibility 4.2 miles    
Events Rain    
Averages and records for this station are not official NWS values.
T = Trace of Precipitation, MM = Missing Value Source: Averaged Metar Reports

Daily Weather History Graph

Daily Weather History Graph

Search for Another Location

Airport or City:

Trip Planner

Search our weather history database for the weather conditions in past years. The results will help you decide how hot, cold, wet, or windy it might be!

Date:

Astronomy

Nov. 24, 2012 Rise Set
Actual Time 7:33 AM GMT 4:17 PM GMT
Civil Twilight 6:57 AM GMT 4:53 PM GMT
Nautical Twilight 6:17 AM GMT 5:33 PM GMT
Astronomical Twilight 5:39 AM GMT 6:11 PM GMT
Moon 2:09 PM GMT (11/24) 3:18 AM GMT (11/24)
Length of Visible Light 9h 56m
Length of Day
8h 44m
Waxing Gibbous, 85% of the Moon is Illuminated
Nov 24
Waxing Gibbous
Nov 28
Full
Dec 6
Last Quarter
Dec 13
New
Dec 20
First Quarter

Hourly Weather History & Observations

Time (GMT) Temp. Dew Point Humidity Pressure Visibility Wind Dir Wind Speed Gust Speed Precip Events Conditions
12:00 AM 47 °F 45 °F 92% 29.99 in 16 mi ESE 6.9 mph - - Rain Light Rain
3:00 AM 48 °F 47 °F 96% 29.94 in 3 mi ESE 12.7 mph - - Rain Light Rain
3:50 AM 48.2 °F 48.2 °F 100% 29.89 in 3.1 mi ESE 12.7 mph - N/A Rain Light Rain
4:20 AM 48.2 °F 48.2 °F 100% 29.89 in 3.1 mi ESE 9.2 mph - N/A Rain Light Rain
4:50 AM 50.0 °F 50.0 °F 100% 29.89 in 1.6 mi ESE 15.0 mph - N/A Rain Rain
5:20 AM 50.0 °F 50.0 °F 100% 29.86 in 1.2 mi ESE 12.7 mph - N/A Rain Rain
5:50 AM 50.0 °F 48.2 °F 94% 29.86 in 1.2 mi East 11.5 mph - N/A Rain Rain
6:00 AM 49 °F 49 °F 100% 29.88 in 1 mi ESE 11.5 mph - - Rain Heavy Rain
6:20 AM 50.0 °F 50.0 °F 100% 29.86 in 1.2 mi East 15.0 mph - N/A Rain Rain
6:50 AM 50.0 °F 48.2 °F 94% 29.86 in 1.6 mi East 13.8 mph - N/A Rain Rain
7:20 AM 48.2 °F 48.2 °F 100% 29.86 in 1.9 mi ESE 15.0 mph - N/A Rain Light Rain
7:50 AM 50.0 °F 50.0 °F 100% 29.83 in 1.9 mi ESE 15.0 mph - N/A Rain Light Rain
8:20 AM 50.0 °F 48.2 °F 94% 29.83 in 3.1 mi ESE 13.8 mph - N/A Rain Light Rain
8:50 AM 50.0 °F 48.2 °F 94% 29.80 in 3.7 mi East 18.4 mph - N/A   Partly Cloudy
9:00 AM 49 °F 49 °F 99% 29.81 in 4 mi East 12.7 mph - - Rain Light Rain
9:20 AM 48.2 °F 48.2 °F 100% 29.80 in 3.1 mi ESE 15.0 mph - N/A Rain Light Rain
9:50 AM 50.0 °F 50.0 °F 100% 29.80 in 3.1 mi ESE 19.6 mph - N/A Rain Light Rain
10:20 AM 50.0 °F 48.2 °F 94% 29.80 in 3.1 mi ESE 17.3 mph - N/A Rain Light Rain
10:50 AM 50.0 °F 48.2 °F 94% 29.77 in 3.1 mi SE 13.8 mph - N/A Rain Light Rain
11:20 AM 50.0 °F 50.0 °F 100% 29.77 in 3.1 mi ESE 20.7 mph - N/A Rain Light Rain
11:50 AM 50.0 °F 48.2 °F 94% 29.74 in 3.1 mi ESE 15.0 mph - N/A Rain Light Rain
12:00 PM 49 °F 48 °F 97% 29.75 in 3 mi ESE 20.7 mph - - Rain Light Rain
12:20 PM 50.0 °F 48.2 °F 94% 29.71 in 3.1 mi ESE 21.9 mph - N/A Rain Light Rain
12:50 PM 50.0 °F 48.2 °F 94% 29.68 in 3.1 mi SE 18.4 mph - N/A Rain Light Rain
1:20 PM 50.0 °F 50.0 °F 100% 29.65 in 3.1 mi ESE 18.4 mph - N/A Rain Light Rain
1:50 PM 50.0 °F 50.0 °F 100% 29.65 in 3.1 mi ESE 19.6 mph - N/A Rain Light Rain
2:20 PM 50.0 °F 50.0 °F 100% 29.62 in 2.8 mi ESE 20.7 mph - N/A Rain Rain
2:50 PM 50.0 °F 50.0 °F 100% 29.59 in 3.7 mi ESE 21.9 mph - N/A   Scattered Clouds
3:00 PM 51 °F 50 °F 94% 29.61 in 4 mi ESE 23.0 mph - - Rain Light Rain
3:20 PM 51.8 °F 50.0 °F 94% 29.59 in 6.2 mi ESE 24.2 mph - N/A   Partly Cloudy
3:50 PM 51.8 °F 50.0 °F 94% 29.56 in 6.2 mi ESE 21.9 mph - N/A Rain Light Rain
4:20 PM 51.8 °F 50.0 °F 94% 29.53 in 6.2 mi ESE 19.6 mph - N/A   Partly Cloudy
4:50 PM 51.8 °F 50.0 °F 94% 29.50 in 6.2 mi ESE 23.0 mph - N/A   Partly Cloudy
5:20 PM 53.6 °F 50.0 °F 88% 29.47 in 6.2 mi SE 23.0 mph - N/A   Scattered Clouds
5:50 PM 53.6 °F 50.0 °F 88% 29.44 in 6.2 mi SE 29.9 mph - N/A   Mostly Cloudy
6:00 PM 54 °F 50 °F 82% 29.44 in 9 mi SE 26.5 mph - -   Partly Cloudy
6:20 PM 55.4 °F 51.8 °F 88% 29.42 in 6.2 mi SE 29.9 mph - N/A   Mostly Cloudy
6:50 PM 55.4 °F 51.8 °F 88% 29.39 in 5.6 mi SSE 19.6 mph - N/A Rain Light Rain
7:20 PM 53.6 °F 51.8 °F 94% 29.39 in 5.6 mi SSE 18.4 mph 34.5 mph N/A Rain Rain
7:50 PM 55.4 °F 51.8 °F 88% 29.36 in 4.3 mi South 21.9 mph - N/A Rain Rain
8:20 PM 55.4 °F 51.8 °F 88% 29.39 in 6.2 mi SSW 29.9 mph - N/A Rain Light Rain
9:00 PM 55 °F 53 °F 89% 29.40 in 9 mi SSW 26.5 mph - - Rain Light Rain